Regional Weather Roundup
Issued by NWS

Home | Current Version | Previous Version | Text Only | Print | Product List | Glossary On
Versions: 1 2 3 4 5 6 7 8 9 10 11 12 13 14 15 16 17 18 19 20 21 22 23 24 25 26 27 28 29 30 31 32 33 34 35 36 37 38 39 40 41 42 43 44 45 46 47 48 49 50
000
ASUS44 KFWD 080015
RWRTX
NORTH TEXAS HOURLY WEATHER ROUNDUP
NATIONAL WEATHER SERVICE FORT WORTH TX
700 PM CDT TUE JUL 07 2015

NOTE: "FAIR" INDICATES FEW OR NO CLOUDS BELOW 12,000 FEET WITH NO
SIGNIFICANT WEATHER AND/OR OBSTRUCTIONS TO VISIBILITY.

TXZ118-119-080100-
DALLAS/FORT WORTH METROPLEX

CITY           SKY/WX    TMP DP  RH WIND       PRES   REMARKS
DFW AIRPORT    CLOUDY    89  69  51 S18       29.90S HX  93
6HR MIN TEMP:  87; 6HR MAX TEMP:  92;

DALLAS LOVE    CLOUDY    90  70  51 S10G25    29.91S HX  95
6HR MIN TEMP:  88; 6HR MAX TEMP:  91; 6HR PCP: TRACE;

FTW MEACHAM    CLOUDY    87  71  58 S10       29.90S HX  93
6HR MIN TEMP:  85; 6HR MAX TEMP:  90;

DAL-EXECUTIVE  CLOUDY    86  70  58 S9G18     29.92R HX  90
6HR MIN TEMP:  86; 6HR MAX TEMP:  90;

FTW-ALLIANCE   CLOUDY    86  71  60 S12       29.90F HX  91
6HR MIN TEMP:  84; 6HR MAX TEMP:  89;

FTW-NAS-JRB    CLOUDY    88  71  57 S15       29.90F HX  94
6HR MIN TEMP:  85; 6HR MAX TEMP:  90;

FTW-SPINKS     MOSUNNY   86  72  62 S9        29.92F HX  92
ARLINGTON      CLOUDY    89  69  51 S9G20     29.91S HX  93
6HR MIN TEMP:  88; 6HR MAX TEMP:  91;

ADDISON        CLOUDY    88  70  55 S10G17    29.92S HX  92
MESQUITE       SUNNY     84  70  61 SE10        N/A
LANCASTER      CLOUDY    83  70  63 S10       29.93S
6HR MIN TEMP:  83; 6HR MAX TEMP:  91; 6HR PCP:  0.01;

$$

TXZ091>094-102>105-117-120-121-131>134-080100-
NORTH CENTRAL TEXAS

CITY           SKY/WX    TMP DP  RH WIND       PRES   REMARKS
SHRMAN/DENISON CLOUDY    82  74  76 SE6       29.94S
6HR MIN TEMP:  81; 6HR MAX TEMP:  90;

GAINESVILLE    CLOUDY    80  72  75 CALM      29.93F
6HR MIN TEMP:  80; 6HR MAX TEMP:  83;

BRIDGEPORT     CLOUDY    79  78  96 CALM      29.93F
6HR MIN TEMP:  76; 6HR MAX TEMP:  79; 6HR PCP:  0.05;

DECATUR        CLOUDY    79  74  83 CALM      29.92F
6HR MIN TEMP:  78; 6HR MAX TEMP:  83;

DENTON         CLOUDY    86  71  60 S15       29.90F HX  91
6HR MIN TEMP:  84; 6HR MAX TEMP:  89; 6HR PCP: TRACE;

MCKINNEY       CLOUDY    87  72  60 S15       29.91F HX  93
6HR MIN TEMP:  80; 6HR MAX TEMP:  90; 6HR PCP:  0.11;

GREENVILLE     CLOUDY    79  70  73 S7        29.94R
ROCKWALL       CLOUDY    83  72  68 S10G23    29.92R
6HR MIN TEMP:  83; 6HR MAX TEMP:  92;

TERRELL        CLOUDY    78  74  87 S5        29.94S
6HR MIN TEMP:  76; 6HR MAX TEMP:  91; 6HR PCP:  0.07;

WAXAHACHIE     CLOUDY    84  72  67 S8        29.94R HX  90
6HR MIN TEMP:  84; 6HR MAX TEMP:  91;

CLEBURNE       CLOUDY    86  75  70 S9        29.93S HX  95
GRANBURY         N/A     88  71  56 SE6       29.91F HX  94
6HR MIN TEMP:  84; 6HR MAX TEMP:  88;

$$

TXZ083>090-098>101-113>116-127>130-139>142-154-155-080100-
WESTERN NORTH TEXAS

CITY           SKY/WX    TMP DP  RH WIND       PRES   REMARKS
WICHITA FALLS  LGT RAIN  72  71  97 W7        29.92S FOG
6HR MIN TEMP:  72; 6HR MAX TEMP:  76; 6HR PCP:  0.54;

WF-KICKAPOO    RAIN      74  72  92 W3        29.93F
6HR MIN TEMP:  74; 6HR MAX TEMP:  77; 6HR PCP:  0.10;

VERNON         CLOUDY    71  64  78 N10       29.97S
6HR MIN TEMP:  71; 6HR MAX TEMP:  89; 6HR PCP:  0.05;

ABILENE        CLOUDY    74  72  93 NW5       29.96F
6HR MIN TEMP:  70; 6HR MAX TEMP:  76; 6HR PCP:  0.67;

ABILENE-DYESS  PTSUNNY   73  72  94 N8        29.95S
                                      6HR PCP:  0.50;

BRECKENRIDGE   RAIN      76  75  96 NW5       29.93S
6HR MIN TEMP:  73; 6HR MAX TEMP:  77; 6HR PCP:  0.03;

GRAHAM         LGT RAIN  75  74  96 CALM      29.92S
6HR MIN TEMP:  73; 6HR MAX TEMP:  75; 6HR PCP:  0.01;

MINERAL WELLS  CLOUDY    80  76  87 NE3       29.90F
6HR MIN TEMP:  75; 6HR MAX TEMP:  81; 6HR PCP:  0.05;

STEPHENVILLE   CLOUDY    84  68  59 S5        29.95S
6HR MIN TEMP:  80; 6HR MAX TEMP:  86;

COMANCHE       CLOUDY    84  68  57 S8        29.92F
6HR MIN TEMP:  74; 6HR MAX TEMP:  85;

BROWNWOOD      CLOUDY    82  68  61 S10       29.91F
COLEMAN        DRIZZLE   75  74  96 NW5       29.94F
6HR MIN TEMP:  71; 6HR MAX TEMP:  79; 6HR PCP:  0.65;

BRADY          MOSUNNY   84  66  54 NE9       29.94F
$$

TXZ143>147-156>162-174-175-080100-
CENTRAL TEXAS

CITY           SKY/WX    TMP DP  RH WIND       PRES   REMARKS
WACO           CLOUDY    87  71  58 S18G25    29.92S HX  93
6HR MIN TEMP:  87; 6HR MAX TEMP:  92;

WACO-TSTC      SUNNY     88  73  62 S9        29.92S HX  96
WACO-MCGREGOR  CLOUDY    86  70  58 S12       29.93S HX  90
6HR MIN TEMP:  86; 6HR MAX TEMP:  90;

HILLSBORO      CLOUDY    85  71  62 S13G21    29.93S HX  90
6HR MIN TEMP:  85; 6HR MAX TEMP:  89;

CORSICANA      CLOUDY    86  75  69 S12       29.94F HX  95
6HR MIN TEMP:  83; 6HR MAX TEMP:  92; 6HR PCP:  0.05;

MEXIA          PTSUNNY   86  75  68 SE12G23   29.93S HX  95
6HR MIN TEMP:  85; 6HR MAX TEMP:  90;

HEARNE         PTSUNNY   86  74  67 SE9       29.95S HX  94
6HR MIN TEMP:  83; 6HR MAX TEMP:  91;

CAMERON        CLOUDY    86  76  70 S7        29.93S HX  96
6HR MIN TEMP:  80; 6HR MAX TEMP:  92; 6HR PCP:  0.01;

TEMPLE         CLOUDY    88  70  55 S17       29.92F HX  92
6HR MIN TEMP:  84; 6HR MAX TEMP:  91;

KILLEEN        CLOUDY    79  76  91 S6        29.93S
6HR MIN TEMP:  79; 6HR MAX TEMP:  89; 6HR PCP:  0.01;

KILLEEN-SKYLRK CLOUDY    82  72  69 S8        29.93F
6HR MIN TEMP:  82; 6HR MAX TEMP:  91;

FORT HOOD      CLOUDY    82  73  74 S7        29.93S
6HR MIN TEMP:  80; 6HR MAX TEMP:  90; 6HR PCP: TRACE;

GATESVILLE     CLOUDY    88  70  55 S9        29.95S HX  92
HAMILTON       CLOUDY    86  66  50 S12G21    29.94F
6HR MIN TEMP:  83; 6HR MAX TEMP:  87;

LAMPASAS       CLOUDY    88  72  58 S10G18    29.93F HX  94
6HR MIN TEMP:  87; 6HR MAX TEMP:  91;

$$

TXZ095>097-106>112-122>126-135>138-148>153-164>167-080100-
EAST TEXAS

CITY           SKY/WX    TMP DP  RH WIND       PRES   REMARKS
PARIS          CLOUDY    88  73  62 S10       29.94S HX  96
6HR MIN TEMP:  86; 6HR MAX TEMP:  90;

SULPHUR SPRNGS PTSUNNY   88  71  57 S7        29.96S HX  93
6HR MIN TEMP:  88; 6HR MAX TEMP:  91;

MOUNT PLEASANT PTSUNNY   87  74  64 SE3       29.95S HX  95
6HR MIN TEMP:  87; 6HR MAX TEMP:  92;

GILMER         PTSUNNY   85  72  64 S9        29.95S HX  90
6HR MIN TEMP:  84; 6HR MAX TEMP:  90;

MINEOLA        HVY RAIN  81  73  78 SW9G35    29.97R
TYLER          CLOUDY    87  71  58 S12       29.96R HX  93
6HR MIN TEMP:  87; 6HR MAX TEMP:  93;

LONGVIEW       PTSUNNY   88  77  69 S7        29.95S HX 100
6HR MIN TEMP:  81; 6HR MAX TEMP:  94; 6HR PCP:  0.05;

MARSHALL       PTSUNNY   89  75  64 S8        29.98S HX  99
6HR MIN TEMP:  89; 6HR MAX TEMP:  96;

ATHENS         CLOUDY    82  72  69 CALM      29.94S
PALESTINE      PTSUNNY   88  73  61 S7        29.96S HX  96
JACKSONVILLE   CLOUDY    83  76  80 S5        29.99S HX  91
HENDERSON      PTSUNNY   85  73  65 S5        29.97S HX  92
6HR MIN TEMP:  85; 6HR MAX TEMP:  91;

CENTER         FAIR      84  74  71 S12G18    29.98S HX  92
6HR MIN TEMP:  83; 6HR MAX TEMP:  91; 6HR PCP:  0.01;

NACOGDOCHES    PTSUNNY  N/A N/A N/A S12       29.96S
LUFKIN         MOSUNNY   85  73  67 S12       29.98R HX  91
6HR MIN TEMP:  83; 6HR MAX TEMP:  97;

$$

SUPPLEMENTAL OBSERVATIONS (CENTRAL)

CITY           SKY/WX    TMP DP  RH WIND       PRES   REMARKS
LAKE TEXOMA      N/A     79  72  78 E3          N/A
CADDO GRASSLND   N/A     79  73  83 N1G17       N/A
PAT MAYSE LAKE   N/A     84  75  74 SE7         N/A  HX  92
GREENVILLE       N/A     82  70  65 SW9         N/A
CEDAR HILL       N/A     86  70  58 S10         N/A  HX  90
LAKE LIMESTONE   N/A     88  73  62 S9          N/A  HX  96
MCGREGOR         N/A     88  72  58 S16G22      N/A  HX  94
TEMPLE           N/A     88  72  58 S13G25      N/A  HX  94
$$

SUPPLEMENTAL OBSERVATIONS (WEST)



USA.gov is the U.S. government's official web portal to all federal, state and local government web resources and services.